Time,TemperatureF,DewpointF,PressureIn,WindDirection,WindDirectionDegrees,WindSpeedMPH,WindSpeedGustMPH,Humidity,HourlyPrecipIn,Conditions,Clouds,dailyrainin,SoftwareType,DateUTC
2013-11-24 00:03:00,20.6,-15.2,30.37,NNW,337,8.0,17.0,19,0.00,,,-99.99,WeatherLink 5.7,2013-11-24 05:03:00,
2013-11-24 00:33:00,20.3,-8.4,30.37,NNW,337,8.0,16.0,27,0.00,,,-99.99,WeatherLink 5.7,2013-11-24 05:33:00,
2013-11-24 01:03:00,19.8,-4.1,30.37,NNW,337,8.0,16.0,34,0.00,,,-99.99,WeatherLink 5.7,2013-11-24 06:03:00,
2013-11-24 01:33:00,19.3,-6.5,30.37,NNW,337,7.0,15.0,31,0.00,,,-99.99,WeatherLink 5.7,2013-11-24 06:33:00,
2013-11-24 02:03:00,19.0,-1.4,30.38,NW,315,6.0,16.0,40,0.00,,,-99.99,WeatherLink 5.7,2013-11-24 07:03:00,
2013-11-24 02:33:00,18.7,-2.2,30.38,NNW,337,6.0,13.0,39,0.00,,,-99.99,WeatherLink 5.7,2013-11-24 07:33:00,
2013-11-24 03:03:00,18.1,-8.2,30.38,NNW,337,6.0,14.0,30,0.00,,,-99.99,WeatherLink 5.7,2013-11-24 08:03:00,
2013-11-24 03:33:00,18.1,-6.9,30.39,NNW,337,6.0,12.0,32,0.00,,,-99.99,WeatherLink 5.7,2013-11-24 08:33:00,
2013-11-24 04:03:00,18.0,-8.3,30.39,NW,315,4.0,9.0,30,0.00,,,-99.99,WeatherLink 5.7,2013-11-24 09:03:00,
2013-11-24 04:33:00,17.2,-9.0,30.39,WNW,292,3.0,6.0,30,0.00,,,-99.99,WeatherLink 5.7,2013-11-24 09:33:00,
2013-11-24 05:03:00,16.6,-6.9,30.40,WNW,292,3.0,5.0,34,0.00,,,-99.99,WeatherLink 5.7,2013-11-24 10:03:00,
2013-11-24 05:33:00,16.1,-5.1,30.41,NW,315,3.0,6.0,38,0.00,,,-99.99,WeatherLink 5.7,2013-11-24 10:33:00,
2013-11-24 06:03:00,15.7,-2.4,30.41,WNW,292,3.0,5.0,44,0.00,,,-99.99,WeatherLink 5.7,2013-11-24 11:03:00,
2013-11-24 06:33:00,15.7,-1.4,30.41,NW,315,2.0,5.0,46,0.00,,,-99.99,WeatherLink 5.7,2013-11-24 11:33:00,
2013-11-24 07:03:00,15.3,-0.5,30.41,NW,315,2.0,3.0,49,0.00,,,-99.99,WeatherLink 5.7,2013-11-24 12:03:00,
2013-11-24 07:33:00,15.0,0.5,30.43,NW,315,2.0,4.0,52,0.00,,,-99.99,WeatherLink 5.7,2013-11-24 12:33:00,
2013-11-24 08:03:00,14.6,2.5,30.44,NW,315,3.0,7.0,58,0.00,,,-99.99,WeatherLink 5.7,2013-11-24 13:03:00,
2013-11-24 08:33:00,14.8,7.1,30.46,NW,315,2.0,6.0,71,0.00,,,-99.99,WeatherLink 5.7,2013-11-24 13:33:00,
2013-11-24 09:03:00,17.4,12.6,30.47,NW,315,5.0,9.0,81,0.00,,,-99.99,WeatherLink 5.7,2013-11-24 14:03:00,
2013-11-24 09:33:00,19.0,8.8,30.49,NNW,337,5.0,11.0,64,0.00,,,-99.99,WeatherLink 5.7,2013-11-24 14:33:00,
2013-11-24 10:03:00,20.4,1.9,30.49,NW,315,5.0,14.0,44,0.00,,,-99.99,WeatherLink 5.7,2013-11-24 15:03:00,
2013-11-24 10:33:00,21.2,-20.7,30.49,NW,315,6.0,15.0,14,0.00,,,-99.99,WeatherLink 5.7,2013-11-24 15:33:00,
2013-11-24 11:03:00,21.9,-47.7,30.48,NNW,337,6.0,13.0,3,0.00,,,-99.99,WeatherLink 5.7,2013-11-24 16:03:00,
2013-11-24 11:33:00,22.7,-99.9,30.48,NNW,337,5.0,11.0,0,0.00,,,-99.99,WeatherLink 5.7,2013-11-24 16:33:00,
2013-11-24 12:03:00,23.2,-99.9,30.46,NW,315,5.0,12.0,0,0.00,,,-99.99,WeatherLink 5.7,2013-11-24 17:03:00,
2013-11-24 12:33:00,23.7,-99.9,30.45,NW,315,6.0,13.0,0,0.00,,,-99.99,WeatherLink 5.7,2013-11-24 17:33:00,
2013-11-24 13:03:00,24.3,-99.9,30.44,NW,315,6.0,13.0,0,0.00,,,-99.99,WeatherLink 5.7,2013-11-24 18:03:00,
2013-11-24 13:33:00,24.7,-99.9,30.44,NNW,337,6.0,15.0,0,0.00,,,-99.99,WeatherLink 5.7,2013-11-24 18:33:00,
2013-11-24 14:03:00,24.6,-99.9,30.43,NW,315,6.0,13.0,0,0.00,,,-99.99,WeatherLink 5.7,2013-11-24 19:03:00,
2013-11-24 14:33:00,24.2,-99.9,30.42,NW,315,4.0,12.0,0,0.00,,,-99.99,WeatherLink 5.7,2013-11-24 19:33:00,
2013-11-24 15:03:00,24.8,-99.9,30.41,NW,315,6.0,13.0,0,0.00,,,-99.99,WeatherLink 5.7,2013-11-24 20:03:00,
2013-11-24 15:33:00,24.8,-99.9,30.41,NW,315,6.0,13.0,0,0.00,,,-99.99,WeatherLink 5.7,2013-11-24 20:33:00,
2013-11-24 16:03:00,24.8,-99.9,30.40,NW,315,5.0,11.0,0,0.00,,,-99.99,WeatherLink 5.7,2013-11-24 21:03:00,
2013-11-24 16:33:00,24.3,-99.9,30.40,NNW,337,4.0,10.0,0,0.00,,,-99.99,WeatherLink 5.7,2013-11-24 21:33:00,
2013-11-24 17:03:00,23.9,-99.9,30.39,NNW,337,4.0,9.0,0,0.00,,,-99.99,WeatherLink 5.7,2013-11-24 22:03:00,
2013-11-24 17:33:00,23.3,-99.9,30.38,NNW,337,2.0,6.0,0,0.00,,,-99.99,WeatherLink 5.7,2013-11-24 22:33:00,
2013-11-24 18:03:00,22.9,-99.9,30.39,NNW,337,2.0,6.0,0,0.00,,,-99.99,WeatherLink 5.7,2013-11-24 23:03:00,
2013-11-24 18:33:00,22.5,-99.9,30.39,NNW,337,2.0,3.0,0,0.00,,,-99.99,WeatherLink 5.7,2013-11-24 23:33:00,
2013-11-24 19:03:00,21.9,-99.9,30.39,NNW,337,1.0,3.0,0,0.00,,,-99.99,WeatherLink 5.7,2013-11-25 00:03:00,
2013-11-24 19:33:00,21.3,-48.1,30.39,NNW,337,1.0,2.0,3,0.00,,,-99.99,WeatherLink 5.7,2013-11-25 00:33:00,
2013-11-24 20:03:00,20.6,-24.1,30.38,NNW,337,1.0,2.0,12,0.00,,,-99.99,WeatherLink 5.7,2013-11-25 01:03:00,
2013-11-24 20:33:00,20.3,-14.5,30.37,NNW,337,1.0,2.0,20,0.00,,,-99.99,WeatherLink 5.7,2013-11-25 01:33:00,
2013-11-24 21:03:00,19.9,-8.8,30.36,NNW,337,1.0,3.0,27,0.00,,,-99.99,WeatherLink 5.7,2013-11-25 02:03:00,
2013-11-24 21:33:00,19.6,-3.1,30.35,NNW,337,1.0,4.0,36,0.00,,,-99.99,WeatherLink 5.7,2013-11-25 02:33:00,
2013-11-24 22:04:00,19.4,-0.5,30.36,NNW,337,2.0,5.0,41,0.00,,,-99.99,WeatherLink 5.7,2013-11-25 03:04:00,
2013-11-24 22:33:00,19.2,0.8,30.36,SSW,202,2.0,5.0,44,0.00,,,-99.99,WeatherLink 5.7,2013-11-25 03:33:00,
2013-11-24 23:03:00,19.1,0.7,30.34,South,180,2.0,4.0,44,0.00,,,-99.99,WeatherLink 5.7,2013-11-25 04:03:00,
2013-11-24 23:33:00,18.8,0.9,30.33,SSE,157,2.0,4.0,45,0.00,,,-99.99,WeatherLink 5.7,2013-11-25 04:33:00,